545  
ASUS43 KEAX 171110  
RWREAX  
 
WEATHER ROUNDUP FOR EASTERN KANSAS AND NORTHWEST MISSOURI  
NATIONAL WEATHER SERVICE KANSAS CITY/PLEASANT HILL MO  
600 AM CDT FRI AUG 17 2018  
 
KSZ040-057-103>105-MOZ028-029-037-043-171200-   
..KANSAS CITY METROPOLITAN AREA
 
 
 
CITY SKY/WX TMP DP RH WIND PRES REMARKS
 
K.C. INTL MOCLDY 68 67 96 N3 30.03R  
K.C. DOWNTOWN CLEAR 72 68 87 CALM 30.01S  
LEES SUMMIT CLOUDY 71 70 96 NW6 30.03R  
OLATHE - IXD MOCLDY 71 69 93 NW7 30.03S  
OLATHE - OJC MOCLDY 71 69 93 N5 30.03R  
LAWRENCE CLOUDY 70 69 97 NW3 30.02R  
 

 
 
MOZ001>008-011>017-020>025-030>033-038>040-044>046-053-054-171200-   
..NORTHERN AND CENTRAL MISSOURI
 
 
 
CITY SKY/WX TMP DP RH WIND PRES REMARKS
 
ST. JOSEPH CLEAR 66 66 100 CALM 30.03R  
MOSBY SUNNY 68 68 100 CALM 30.02S  
WARRENSBURG CLOUDY 68 66 94 CALM 30.01F  
WHITEMAN AFB MOCLDY 70 68 95 CALM 29.98S  
CLINTON MOCLDY 66 66 100 CALM 30.02S  
SEDALIA MOCLDY 71 69 93 CALM 30.02F  
WARSAW NOT AVBL  
CHILLICOTHE N/A 67 66 97 CALM 30.01S  
KIRKSVILLE CLEAR 67 66 97 W5 30.00S  
 

 
 
MOZ041-047>049-056>058-063>065-088>090-097-171200-   
..EASTERN AND SOUTHERN MISSOURI
 
 
 
CITY SKY/WX TMP DP RH WIND PRES REMARKS
 
ST. LOUIS INTL CLOUDY 75 71 87 S9 30.01S  
SPIRIT OF STL CLOUDY 74 71 91 SW3 30.00S  
COLUMBIA MOCLDY 71 68 90 W6 30.01F  
JEFFERSON CITY PTCLDY 71 69 93 W3 30.00F  
ROLLA CLOUDY 69 66 90 SW10 30.04S  
OSAGE BEACH CLOUDY 69 68 96 S3 30.03F  
SPRINGFIELD CLOUDY 70 67 90 VRB5 30.02F  
BRANSON FOG 68 68 100 E7 30.06R VSB 1/4  
JOPLIN MOCLDY 69 68 96 W15 30.08R THUNDER  
WEST PLAINS PTCLDY 68 67 96 CALM 30.07F  
 

 
 
IAZ060-094-KSZ022-034>040-054-083-096-NEZ052-066-093-171200-    
..KANSAS...SOUTHEAST NEBRASKA AND IOWA
 
 
 
CITY SKY/WX TMP DP RH WIND PRES REMARKS
 
TOPEKA CLEAR 70 69 97 CALM 30.02R  
MANHATTAN CLEAR 67 67 100 CALM 30.04R  
EMPORIA MOCLDY 69 67 93 N3 30.03S  
CHANUTE TSTM 70 69 97 N8 30.06R  
WICHITA MOCLDY 73 68 84 N8 30.02F  
OMAHA CLEAR 66 63 90 N6 30.05R  
LINCOLN CLEAR 63 61 93 CALM 30.08R  
FALLS CITY CLEAR 65 64 97 W5 30.03R  
LAMONI PTCLDY 64 62 93 W5 N/A  
DES MOINES PTCLDY 66 65 96 NW5 29.99R  
 

 
 
 
 
CLICK HERE TO GO TO PREVIOUS BULLETINS.

The Nexlab MO Page
The Nexlab KS Page Main Text Page